Flag Weather past 2 weeks in San Salvador, El Salvador

Now
79 °F

Sunny.


Feels Like: 80 °F
Forecast: N/A
Wind: 28 mph from Northwest

Location: San Salvador / Ilopango

Current Time: Nov 27, 2014 at 3:18:01 PM

Latest Report: Nov 27, 2014 at 2:50 PM


Visibility: 10 mi

Pressure: 29.98 "Hg

Humidity: 58%

Dew point: 63 °F

Location of San SalvadorLocation

Historic Weather in San Salvador — Graph

°F

San Salvador temperature yesterday

Maximum temperature yesterday: 86 °F (at 11:50 AM)
Minimum temperature yesterday: 66 °F (at 9:50 PM)
Average temperature yesterday: 76 °F

Past Weeks' High & Low Weather Summary

 TemperatureHumidityPressure
High90 °F (Nov 18, 12:50 PM)100% (Nov 17, 6:50 AM)30.07 "Hg (Nov 17, 6:50 AM)
Low64 °F (Nov 14, 5:50 AM)51% (Nov 15, 8:50 AM)29.89 "Hg (Nov 23, 2:50 PM)
Average77 °F77%29.99 "Hg
* Reported Nov 12 1:50 PM — Nov 27 1:50 PM, San Salvador, Weather by CustomWeather, © 2014

Note: Actual official high and low records may vary slightly from our data, if they occured in-between our weather recording intervals... More about our weather records

Advertising

San Salvador weather history for previous 24 hours

 ConditionsComfort  
Time TempWeatherWind HumidityBarometerVisibility
1:50 PM
Nov 27
81 °FSunny.23 mph54%30.01 "Hg10 mi
12:50 PM81 °FSunny.21 mph58%30.01 "Hg10 mi
11:50 AM79 °FSunny.25 mph58%30.04 "Hg10 mi
10:50 AM77 °FSunny.21 mph61%30.04 "Hg10 mi
9:50 AM75 °FSunny.25 mph61%30.07 "Hg10 mi
8:50 AM72 °FSunny.23 mph69%30.07 "Hg10 mi
7:50 AM68 °FSunny.18 mph73%30.07 "Hg10 mi
6:50 AM64 °FSunny.12 mph83%30.01 "Hg10 mi
11:50 PM
Nov 26
66 °FClear.16 mph78%30.04 "Hg10 mi
10:50 PM66 °FClear.14 mph78%30.07 "Hg10 mi
9:50 PM66 °FClear.15 mph78%30.01 "Hg10 mi
8:50 PM68 °FClear.16 mph73%30.01 "Hg10 mi
7:50 PM68 °FClear.16 mph78%30.01 "Hg10 mi
6:50 PM70 °FClear.14 mph78%29.98 "Hg10 mi
5:50 PM73 °FPassing clouds.14 mph74%29.98 "HgN/A
4:50 PM77 °FPassing clouds.16 mph74%N/AN/A
3:50 PM82 °FPassing clouds.16 mph66%29.95 "HgN/A
Weather by CustomWeather, © 2014

See weather overviewHow to use our weather pages